Location: The Stocker AstroScience Center
(25.7579°N, 80.3725°W)
Time: 11:55:19

ISS - Pass Details

Date: 25 February 2018
Orbit: 403 x 406 km, 51.6° (Epoch: 21 March)

Event Time Altitude Azimuth Distance (km) Brightness Sun altitude
Rises 05:39:22 0° 216° (SW) 2,311 - -16.3°
Reaches altitude 10° 05:41:27 10° 213° (SSW) 1,454 - -15.8°
Exits shadow 05:42:15 16° 211° (SSW) 1,134 -1.9 -15.6°
Maximum altitude 05:44:41 68° 131° (SE) 436 -3.6 -15.1°
Drops below altitude 10° 05:47:56 10° 47° (NE) 1,458 -0.4 -14.4°
Sets 05:50:01 0° 44° (NE) 2,319 0.7 -13.9°
